Location: Cheyres
(46.8153°N, 6.7877°E)
Time: 16:34:07
(UTC+00:00)

QB50P2 - Pass Details

Date: 25 June 2022
Orbit: 590 x 605 km, 97.9° (Epoch: 18 August)

Event Time Altitude Azimuth Distance (km) Brightness Sun altitude
Rises 02:12:59 0° 359° (N) 2,855 ? -11.3°
Reaches altitude 10° 02:15:38 10° 342° (NNW) 1,950 ? -11.0°
Maximum altitude 02:18:38 19° 297° (WNW) 1,441 ? -10.7°
Drops below altitude 10° 02:21:38 10° 252° (WSW) 1,947 ? -10.4°
Enters shadow 02:21:42 10° 251° (WSW) 1,966 ? -10.4°
